Year,Month,Day,Hour,Minute,Value (Times are PST for windgust in km/hr)
2006,02,04,00,00,27.40
2006,02,04,00,01,24.20
2006,02,04,00,02,19.30
2006,02,04,00,03,20.90
2006,02,04,00,04,20.90
2006,02,04,00,05,24.20
2006,02,04,00,06,16.10
2006,02,04,00,07,14.50
2006,02,04,00,08,22.50
2006,02,04,00,09,35.40
2006,02,04,00,10,25.70
2006,02,04,00,11,27.40
2006,02,04,00,12,30.60
2006,02,04,00,13,22.50
2006,02,04,00,14,20.90
2006,02,04,00,15,25.70
2006,02,04,00,16,24.20
2006,02,04,00,17,24.20
2006,02,04,00,18,20.90
2006,02,04,00,19,19.30
2006,02,04,00,20,17.70
2006,02,04,00,21,19.30
2006,02,04,00,22,20.90
2006,02,04,00,23,20.90
2006,02,04,00,24,22.50
2006,02,04,00,25,20.90
2006,02,04,00,26,17.70
2006,02,04,00,27,17.70
2006,02,04,00,28,19.30
2006,02,04,00,29,17.70
2006,02,04,00,30,11.30
2006,02,04,00,31,11.30
2006,02,04,00,32,16.10
2006,02,04,00,33,12.90
2006,02,04,00,34,19.30
2006,02,04,00,35,14.50
2006,02,04,00,36,17.70
2006,02,04,00,37,22.50
2006,02,04,00,38,17.70
2006,02,04,00,39,17.70
2006,02,04,00,40,22.50
2006,02,04,00,41,22.50
2006,02,04,00,42,22.50
2006,02,04,00,43,22.50
2006,02,04,00,44,16.10
2006,02,04,00,45,11.30
2006,02,04,00,46,11.30
2006,02,04,00,47,11.30
2006,02,04,00,48,17.70
2006,02,04,00,49,9.60
2006,02,04,00,50,9.60
2006,02,04,00,51,9.60
2006,02,04,00,52,9.60
2006,02,04,00,53,17.70
2006,02,04,00,54,20.90
2006,02,04,00,55,12.90
2006,02,04,00,56,8.10
2006,02,04,00,57,8.10
2006,02,04,00,58,8.10
2006,02,04,00,59,6.40
2006,02,04,01,00,4.80
2006,02,04,01,01,6.40
2006,02,04,01,02,6.40
2006,02,04,01,03,3.20
2006,02,04,01,04,1.60
2006,02,04,01,05,4.80
2006,02,04,01,06,3.20
2006,02,04,01,07,3.20
2006,02,04,01,08,3.20
2006,02,04,01,09,1.60
2006,02,04,01,10,3.20
2006,02,04,01,11,1.60
2006,02,04,01,12,1.60
2006,02,04,01,13,4.80
2006,02,04,01,14,4.80
2006,02,04,01,15,4.80
2006,02,04,01,16,1.60
2006,02,04,01,17,1.60
2006,02,04,01,18,0.00
2006,02,04,01,19,4.80
2006,02,04,01,20,6.40
2006,02,04,01,21,4.80
2006,02,04,01,22,3.20
2006,02,04,01,23,3.20
2006,02,04,01,24,4.80
2006,02,04,01,25,1.60
2006,02,04,01,26,4.80
2006,02,04,01,27,4.80
2006,02,04,01,28,1.60
2006,02,04,01,29,0.00
2006,02,04,01,30,6.40
2006,02,04,01,31,4.80
2006,02,04,01,32,4.80
2006,02,04,01,33,3.20
2006,02,04,01,34,1.60
2006,02,04,01,35,3.20
2006,02,04,01,36,4.80
2006,02,04,01,37,6.40
2006,02,04,01,38,11.30
2006,02,04,01,39,6.40
2006,02,04,01,40,4.80
2006,02,04,01,41,6.40
2006,02,04,01,42,4.80
2006,02,04,01,43,6.40
2006,02,04,01,44,6.40
2006,02,04,01,45,3.20
2006,02,04,01,46,4.80
2006,02,04,01,47,6.40
2006,02,04,01,48,6.40
2006,02,04,01,49,6.40
2006,02,04,01,50,4.80
2006,02,04,01,51,4.80
2006,02,04,01,52,4.80
2006,02,04,01,53,3.20
2006,02,04,01,54,3.20
2006,02,04,01,55,1.60
2006,02,04,01,56,1.60
2006,02,04,01,57,1.60
2006,02,04,01,58,3.20
2006,02,04,01,59,4.80
2006,02,04,02,00,3.20
2006,02,04,02,01,4.80
2006,02,04,02,02,4.80
2006,02,04,02,03,4.80
2006,02,04,02,04,4.80
2006,02,04,02,05,4.80
2006,02,04,02,06,4.80
2006,02,04,02,07,1.60
2006,02,04,02,08,1.60
2006,02,04,02,09,3.20
2006,02,04,02,10,3.20
2006,02,04,02,11,3.20
2006,02,04,02,12,3.20
2006,02,04,02,13,1.60
2006,02,04,02,14,1.60
2006,02,04,02,15,0.00
2006,02,04,02,16,0.00
2006,02,04,02,17,3.20
2006,02,04,02,18,4.80
2006,02,04,02,19,4.80
2006,02,04,02,20,3.20
2006,02,04,02,21,4.80
2006,02,04,02,22,4.80
2006,02,04,02,23,4.80
2006,02,04,02,24,3.20
2006,02,04,02,25,3.20
2006,02,04,02,26,1.60
2006,02,04,02,27,1.60
2006,02,04,02,28,0.00
2006,02,04,02,29,0.00
2006,02,04,02,30,1.60
2006,02,04,02,31,3.20
2006,02,04,02,32,4.80
2006,02,04,02,33,3.20
2006,02,04,02,34,4.80
2006,02,04,02,35,4.80
2006,02,04,02,36,6.40
2006,02,04,02,37,4.80
2006,02,04,02,38,3.20
2006,02,04,02,39,3.20
2006,02,04,02,40,3.20
2006,02,04,02,41,3.20
2006,02,04,02,42,6.40
2006,02,04,02,43,4.80
2006,02,04,02,44,4.80
2006,02,04,02,45,3.20
2006,02,04,02,46,6.40
2006,02,04,02,47,4.80
2006,02,04,02,48,6.40
2006,02,04,02,49,4.80
2006,02,04,02,50,1.60
2006,02,04,02,51,0.00
2006,02,04,02,52,1.60
2006,02,04,02,53,1.60
2006,02,04,02,54,1.60
2006,02,04,02,55,3.20
2006,02,04,02,56,4.80
2006,02,04,02,57,3.20
2006,02,04,02,58,8.10
2006,02,04,02,59,6.40
2006,02,04,03,00,4.80
2006,02,04,03,01,8.10
2006,02,04,03,02,6.40
2006,02,04,03,03,4.80
2006,02,04,03,04,4.80
2006,02,04,03,05,4.80
2006,02,04,03,06,4.80
2006,02,04,03,07,6.40
2006,02,04,03,08,8.10
2006,02,04,03,09,6.40
2006,02,04,03,10,3.20
2006,02,04,03,11,3.20
2006,02,04,03,12,3.20
2006,02,04,03,13,3.20
2006,02,04,03,14,6.40
2006,02,04,03,15,3.20
2006,02,04,03,16,4.80
2006,02,04,03,17,6.40
2006,02,04,03,18,6.40
2006,02,04,03,19,24.20
2006,02,04,03,20,19.30
2006,02,04,03,21,22.50
2006,02,04,03,22,17.70
2006,02,04,03,23,22.50
2006,02,04,03,24,17.70
2006,02,04,03,25,19.30
2006,02,04,03,26,20.90
2006,02,04,03,27,20.90
2006,02,04,03,28,19.30
2006,02,04,03,29,17.70
2006,02,04,03,30,14.50
2006,02,04,03,31,8.10
2006,02,04,03,32,9.60
2006,02,04,03,33,11.30
2006,02,04,03,34,8.10
2006,02,04,03,35,9.60
2006,02,04,03,36,11.30
2006,02,04,03,37,8.10
2006,02,04,03,38,14.50
2006,02,04,03,39,22.50
2006,02,04,03,40,19.30
2006,02,04,03,41,16.10
2006,02,04,03,42,9.60
2006,02,04,03,43,9.60
2006,02,04,03,44,29.00
2006,02,04,03,45,32.20
2006,02,04,03,46,20.90
2006,02,04,03,47,25.70
2006,02,04,03,48,32.20
2006,02,04,03,49,27.40
2006,02,04,03,50,32.20
2006,02,04,03,51,41.80
2006,02,04,03,52,27.40
2006,02,04,03,53,30.60
2006,02,04,03,54,32.20
2006,02,04,03,55,35.40
2006,02,04,03,56,35.40
2006,02,04,03,57,46.70
2006,02,04,03,58,37.00
2006,02,04,03,59,33.80
2006,02,04,04,00,30.60
2006,02,04,04,01,35.40
2006,02,04,04,02,40.20
2006,02,04,04,03,35.40
2006,02,04,04,04,41.80
2006,02,04,04,05,35.40
2006,02,04,04,06,22.50
2006,02,04,04,07,24.20
2006,02,04,04,08,29.00
2006,02,04,04,09,27.40
2006,02,04,04,10,25.70
2006,02,04,04,11,29.00
2006,02,04,04,12,35.40
2006,02,04,04,13,29.00
2006,02,04,04,14,33.80
2006,02,04,04,15,30.60
2006,02,04,04,16,32.20
2006,02,04,04,17,25.70
2006,02,04,04,18,25.70
2006,02,04,04,19,27.40
2006,02,04,04,20,25.70
2006,02,04,04,21,33.80
2006,02,04,04,22,24.20
2006,02,04,04,23,25.70
2006,02,04,04,24,27.40
2006,02,04,04,25,29.00
2006,02,04,04,26,17.70
2006,02,04,04,27,32.20
2006,02,04,04,28,22.50
2006,02,04,04,29,24.20
2006,02,04,04,30,25.70
2006,02,04,04,31,27.40
2006,02,04,04,32,17.70
2006,02,04,04,33,22.50
2006,02,04,04,34,25.70
2006,02,04,04,35,25.70
2006,02,04,04,36,32.20
2006,02,04,04,37,27.40
2006,02,04,04,38,32.20
2006,02,04,04,39,32.20
2006,02,04,04,40,40.20
2006,02,04,04,41,22.50
2006,02,04,04,42,27.40
2006,02,04,04,43,35.40
2006,02,04,04,44,33.80
2006,02,04,04,45,25.70
2006,02,04,04,46,32.20
2006,02,04,04,47,25.70
2006,02,04,04,48,27.40
2006,02,04,04,49,33.80
2006,02,04,04,50,30.60
2006,02,04,04,51,24.20
2006,02,04,04,52,32.20
2006,02,04,04,53,25.70
2006,02,04,04,54,24.20
2006,02,04,04,55,25.70
2006,02,04,04,56,25.70
2006,02,04,04,57,30.60
2006,02,04,04,58,30.60
2006,02,04,04,59,25.70
2006,02,04,05,00,29.00
2006,02,04,05,01,33.80
2006,02,04,05,02,35.40
2006,02,04,05,03,27.40
2006,02,04,05,04,38.60
2006,02,04,05,05,33.80
2006,02,04,05,06,32.20
2006,02,04,05,07,24.20
2006,02,04,05,08,22.50
2006,02,04,05,09,27.40
2006,02,04,05,10,38.60
2006,02,04,05,11,32.20
2006,02,04,05,12,37.00
2006,02,04,05,13,30.60
2006,02,04,05,14,30.60
2006,02,04,05,15,22.50
2006,02,04,05,16,24.20
2006,02,04,05,17,32.20
2006,02,04,05,18,38.60
2006,02,04,05,19,38.60
2006,02,04,05,20,32.20
2006,02,04,05,21,30.60
2006,02,04,05,22,29.00
2006,02,04,05,23,32.20
2006,02,04,05,24,35.40
2006,02,04,05,25,29.00
2006,02,04,05,26,29.00
2006,02,04,05,27,27.40
2006,02,04,05,28,30.60
2006,02,04,05,29,33.80
2006,02,04,05,30,25.70
2006,02,04,05,31,24.20
2006,02,04,05,32,30.60
2006,02,04,05,33,30.60
2006,02,04,05,34,27.40
2006,02,04,05,35,25.70
2006,02,04,05,36,24.20
2006,02,04,05,37,29.00
2006,02,04,05,38,37.00
2006,02,04,05,39,29.00
2006,02,04,05,40,32.20
2006,02,04,05,41,35.40
2006,02,04,05,42,24.20
2006,02,04,05,43,30.60
2006,02,04,05,44,35.40
2006,02,04,05,45,40.20
2006,02,04,05,46,37.00
2006,02,04,05,47,27.40
2006,02,04,05,48,22.50
2006,02,04,05,49,37.00
2006,02,04,05,50,27.40
2006,02,04,05,51,25.70
2006,02,04,05,52,16.10
2006,02,04,05,53,33.80
2006,02,04,05,54,25.70
2006,02,04,05,55,29.00
2006,02,04,05,56,22.50
2006,02,04,05,57,20.90
2006,02,04,05,58,19.30
2006,02,04,05,59,25.70
2006,02,04,06,00,30.60
2006,02,04,06,01,32.20
2006,02,04,06,02,25.70
2006,02,04,06,03,25.70
2006,02,04,06,04,27.40
2006,02,04,06,05,25.70
2006,02,04,06,06,17.70
2006,02,04,06,07,20.90
2006,02,04,06,08,22.50
2006,02,04,06,09,17.70
2006,02,04,06,10,14.50
2006,02,04,06,11,9.60
2006,02,04,06,12,17.70
2006,02,04,06,13,22.50
2006,02,04,06,14,25.70
2006,02,04,06,15,32.20
2006,02,04,06,16,22.50
2006,02,04,06,17,30.60
2006,02,04,06,18,24.20
2006,02,04,06,19,17.70
2006,02,04,06,20,22.50
2006,02,04,06,21,20.90
2006,02,04,06,22,19.30
2006,02,04,06,23,27.40
2006,02,04,06,24,24.20
2006,02,04,06,25,24.20
2006,02,04,06,26,19.30
2006,02,04,06,27,22.50
2006,02,04,06,28,29.00
2006,02,04,06,29,25.70
2006,02,04,06,30,19.30
2006,02,04,06,31,25.70
2006,02,04,06,32,17.70
2006,02,04,06,33,19.30
2006,02,04,06,34,19.30
2006,02,04,06,35,25.70
2006,02,04,06,36,29.00
2006,02,04,06,37,29.00
2006,02,04,06,38,38.60
2006,02,04,06,39,41.80
2006,02,04,06,40,33.80
2006,02,04,06,41,20.90
2006,02,04,06,42,38.60
2006,02,04,06,43,35.40
2006,02,04,06,44,24.20
2006,02,04,06,45,25.70
2006,02,04,06,46,41.80
2006,02,04,06,47,33.80
2006,02,04,06,48,29.00
2006,02,04,06,49,29.00
2006,02,04,06,50,45.10
2006,02,04,06,51,38.60
2006,02,04,06,52,30.60
2006,02,04,06,53,35.40
2006,02,04,06,54,33.80
2006,02,04,06,55,22.50
2006,02,04,06,56,35.40
2006,02,04,06,57,32.20
2006,02,04,06,58,37.00
2006,02,04,06,59,35.40
2006,02,04,07,00,32.20
2006,02,04,07,01,37.00
2006,02,04,07,02,33.80
2006,02,04,07,03,37.00
2006,02,04,07,04,32.20
2006,02,04,07,05,33.80
2006,02,04,07,06,29.00
2006,02,04,07,07,32.20
2006,02,04,07,08,33.80
2006,02,04,07,09,30.60
2006,02,04,07,10,25.70
2006,02,04,07,11,32.20
2006,02,04,07,12,46.70
2006,02,04,07,13,40.20
2006,02,04,07,14,29.00
2006,02,04,07,15,25.70
2006,02,04,07,16,43.50
2006,02,04,07,17,40.20
2006,02,04,07,18,33.80
2006,02,04,07,19,24.20
2006,02,04,07,20,32.20
2006,02,04,07,21,30.60
2006,02,04,07,22,38.60
2006,02,04,07,23,35.40
2006,02,04,07,24,49.90
2006,02,04,07,25,37.00
2006,02,04,07,26,32.20
2006,02,04,07,27,22.50
2006,02,04,07,28,37.00
2006,02,04,07,29,38.60
2006,02,04,07,30,48.30
2006,02,04,07,31,45.10
2006,02,04,07,32,49.90
2006,02,04,07,33,33.80
2006,02,04,07,34,33.80
2006,02,04,07,35,29.00
2006,02,04,07,36,32.20
2006,02,04,07,37,29.00
2006,02,04,07,38,29.00
2006,02,04,07,39,24.20
2006,02,04,07,40,25.70
2006,02,04,07,41,33.80
2006,02,04,07,42,27.40
2006,02,04,07,43,32.20
2006,02,04,07,44,35.40
2006,02,04,07,45,33.80
2006,02,04,07,46,45.10
2006,02,04,07,47,37.00
2006,02,04,07,48,43.50
2006,02,04,07,49,37.00
2006,02,04,07,50,45.10
2006,02,04,07,51,46.70
2006,02,04,07,52,45.10
2006,02,04,07,53,33.80
2006,02,04,07,54,30.60
2006,02,04,07,55,27.40
2006,02,04,07,56,29.00
2006,02,04,07,57,30.60
2006,02,04,07,58,29.00
2006,02,04,07,59,33.80
2006,02,04,08,00,25.70
2006,02,04,08,01,30.60
2006,02,04,08,02,41.80
2006,02,04,08,03,48.30
2006,02,04,08,04,25.70
2006,02,04,08,05,40.20
2006,02,04,08,06,37.00
2006,02,04,08,07,24.20
2006,02,04,08,08,38.60
2006,02,04,08,09,37.00
2006,02,04,08,10,38.60
2006,02,04,08,11,38.60
2006,02,04,08,12,46.70
2006,02,04,08,13,29.00
2006,02,04,08,14,33.80
2006,02,04,08,15,33.80
2006,02,04,08,16,40.20
2006,02,04,08,17,32.20
2006,02,04,08,18,27.40
2006,02,04,08,19,22.50
2006,02,04,08,20,30.60
2006,02,04,08,21,29.00
2006,02,04,08,22,32.20
2006,02,04,08,23,33.80
2006,02,04,08,24,29.00
2006,02,04,08,25,40.20
2006,02,04,08,26,29.00
2006,02,04,08,27,29.00
2006,02,04,08,28,29.00
2006,02,04,08,29,24.20
2006,02,04,08,30,27.40
2006,02,04,08,31,38.60
2006,02,04,08,32,48.30
2006,02,04,08,33,33.80
2006,02,04,08,34,37.00
2006,02,04,08,35,37.00
2006,02,04,08,36,40.20
2006,02,04,08,37,38.60
2006,02,04,08,38,40.20
2006,02,04,08,39,32.20
2006,02,04,08,40,32.20
2006,02,04,08,41,35.40
2006,02,04,08,42,27.40
2006,02,04,08,43,25.70
2006,02,04,08,44,22.50
2006,02,04,08,45,29.00
2006,02,04,08,46,38.60
2006,02,04,08,47,25.70
2006,02,04,08,48,24.20
2006,02,04,08,49,22.50
2006,02,04,08,50,16.10
2006,02,04,08,51,22.50
2006,02,04,08,52,29.00
2006,02,04,08,53,33.80
2006,02,04,08,54,30.60
2006,02,04,08,55,27.40
2006,02,04,08,56,32.20
2006,02,04,08,57,35.40
2006,02,04,08,58,24.20
2006,02,04,08,59,30.60
2006,02,04,09,00,32.20
2006,02,04,09,01,35.40
2006,02,04,09,02,25.70
2006,02,04,09,03,35.40
2006,02,04,09,04,41.80
2006,02,04,09,05,25.70
2006,02,04,09,06,27.40
2006,02,04,09,07,49.90
2006,02,04,09,08,33.80
2006,02,04,09,09,30.60
2006,02,04,09,10,38.60
2006,02,04,09,11,33.80
2006,02,04,09,12,24.20
2006,02,04,09,13,29.00
2006,02,04,09,14,35.40
2006,02,04,09,15,41.80
2006,02,04,09,16,38.60
2006,02,04,09,17,48.30
2006,02,04,09,18,35.40
2006,02,04,09,19,35.40
2006,02,04,09,20,37.00
2006,02,04,09,21,40.20
2006,02,04,09,22,51.50
2006,02,04,09,23,41.80
2006,02,04,09,24,49.90
2006,02,04,09,25,37.00
2006,02,04,09,26,27.40
2006,02,04,09,27,29.00
2006,02,04,09,28,32.20
2006,02,04,09,29,41.80
2006,02,04,09,30,40.20
2006,02,04,09,31,46.70
2006,02,04,09,32,41.80
2006,02,04,09,33,37.00
2006,02,04,09,34,37.00
2006,02,04,09,35,35.40
2006,02,04,09,36,46.70
2006,02,04,09,37,38.60
2006,02,04,09,38,38.60
2006,02,04,09,39,32.20
2006,02,04,09,40,45.10
2006,02,04,09,41,48.30
2006,02,04,09,42,49.90
2006,02,04,09,43,33.80
2006,02,04,09,44,41.80
2006,02,04,09,45,45.10
2006,02,04,09,46,37.00
2006,02,04,09,47,53.10
2006,02,04,09,48,41.80
2006,02,04,09,49,37.00
2006,02,04,09,50,35.40
2006,02,04,09,51,32.20
2006,02,04,09,52,32.20
2006,02,04,09,53,29.00
2006,02,04,09,54,43.50
2006,02,04,09,55,35.40
2006,02,04,09,56,41.80
2006,02,04,09,57,35.40
2006,02,04,09,58,46.70
2006,02,04,09,59,37.00
2006,02,04,10,00,48.30
2006,02,04,10,01,57.90
2006,02,04,10,02,38.60
2006,02,04,10,03,43.50
2006,02,04,10,04,35.40
2006,02,04,10,05,40.20
2006,02,04,10,06,45.10
2006,02,04,10,07,49.90
2006,02,04,10,08,64.40
2006,02,04,10,09,33.80
2006,02,04,10,10,51.50
2006,02,04,10,11,48.30
2006,02,04,10,12,49.90
2006,02,04,10,13,40.20
2006,02,04,10,14,64.40
2006,02,04,10,15,38.60
2006,02,04,10,16,59.50
2006,02,04,10,17,62.70
2006,02,04,10,18,56.30
2006,02,04,10,19,61.20
2006,02,04,10,20,66.00
2006,02,04,10,21,69.20
2006,02,04,10,22,51.50
2006,02,04,10,23,43.50
2006,02,04,10,24,53.10
2006,02,04,10,25,43.50
2006,02,04,10,26,51.50
2006,02,04,10,27,40.20
2006,02,04,10,28,49.90
2006,02,04,10,29,49.90
2006,02,04,10,30,38.60
2006,02,04,10,31,75.60
2006,02,04,10,32,57.90
2006,02,04,10,33,61.20
2006,02,04,10,34,54.70
2006,02,04,10,35,51.50
2006,02,04,10,36,61.20
2006,02,04,10,37,53.10
2006,02,04,10,38,49.90
2006,02,04,10,39,46.70
2006,02,04,10,40,54.70
2006,02,04,10,41,70.80
2006,02,04,10,42,53.10
2006,02,04,10,43,57.90
2006,02,04,10,44,49.90
2006,02,04,10,45,40.20
2006,02,04,10,46,57.90
2006,02,04,10,47,49.90
2006,02,04,10,48,49.90
2006,02,04,10,49,45.10
2006,02,04,10,50,51.50
2006,02,04,10,51,45.10
2006,02,04,10,52,40.20
2006,02,04,10,53,45.10
2006,02,04,10,54,70.80
2006,02,04,10,55,54.70
2006,02,04,10,56,54.70
2006,02,04,10,57,49.90
2006,02,04,10,58,59.50
2006,02,04,10,59,53.10
2006,02,04,11,00,54.70
2006,02,04,11,01,46.70
2006,02,04,11,02,54.70
2006,02,04,11,03,53.10
2006,02,04,11,04,46.70
2006,02,04,11,05,41.80
2006,02,04,11,06,40.20
2006,02,04,11,07,41.80
2006,02,04,11,08,46.70
2006,02,04,11,09,35.40
2006,02,04,11,10,48.30
2006,02,04,11,11,40.20
2006,02,04,11,12,33.80
2006,02,04,11,13,32.20
2006,02,04,11,14,33.80
2006,02,04,11,15,35.40
2006,02,04,11,16,41.80
2006,02,04,11,17,29.00
2006,02,04,11,18,41.80
2006,02,04,11,19,32.20
2006,02,04,11,20,33.80
2006,02,04,11,21,49.90
2006,02,04,11,22,46.70
2006,02,04,11,23,57.90
2006,02,04,11,24,48.30
2006,02,04,11,25,38.60
2006,02,04,11,26,46.70
2006,02,04,11,27,45.10
2006,02,04,11,28,48.30
2006,02,04,11,29,38.60
2006,02,04,11,30,62.70
2006,02,04,11,31,69.20
2006,02,04,11,32,48.30
2006,02,04,11,33,54.70
2006,02,04,11,34,49.90
2006,02,04,11,35,59.50
2006,02,04,11,36,53.10
2006,02,04,11,37,62.70
2006,02,04,11,38,59.50
2006,02,04,11,39,48.30
2006,02,04,11,40,46.70
2006,02,04,11,41,59.50
2006,02,04,11,42,64.40
2006,02,04,11,43,59.50
2006,02,04,11,44,59.50
2006,02,04,11,45,49.90
2006,02,04,11,46,53.10
2006,02,04,11,47,62.70
2006,02,04,11,48,57.90
2006,02,04,11,49,53.10
2006,02,04,11,50,62.70
2006,02,04,11,51,75.60
2006,02,04,11,52,64.40
2006,02,04,11,53,45.10
2006,02,04,11,54,38.60
2006,02,04,11,55,40.20
2006,02,04,11,56,40.20
2006,02,04,11,57,53.10
2006,02,04,11,58,45.10
2006,02,04,11,59,57.90
2006,02,04,12,00,51.50
2006,02,04,12,01,41.80
2006,02,04,12,02,41.80
2006,02,04,12,03,41.80
2006,02,04,12,04,49.90
2006,02,04,12,05,45.10
2006,02,04,12,06,53.10
2006,02,04,12,07,49.90
2006,02,04,12,08,57.90
2006,02,04,12,09,43.50
2006,02,04,12,10,53.10
2006,02,04,12,11,61.20
2006,02,04,12,12,49.90
2006,02,04,12,13,53.10
2006,02,04,14,16,45.10
2006,02,04,14,17,67.60
2006,02,04,14,18,41.80
2006,02,04,14,19,62.70
2006,02,04,14,20,70.80
2006,02,04,14,21,61.20
2006,02,04,14,22,62.70
2006,02,04,14,23,62.70
2006,02,04,14,24,53.10
2006,02,04,14,25,66.00
2006,02,04,14,26,53.10
2006,02,04,14,27,45.10
2006,02,04,14,28,53.10
2006,02,04,14,29,59.50
2006,02,04,14,30,51.50
2006,02,04,14,31,49.90
2006,02,04,14,32,49.90
2006,02,04,14,33,51.50
2006,02,04,14,34,51.50
2006,02,04,14,35,41.80
2006,02,04,14,36,59.50
2006,02,04,14,37,51.50
2006,02,04,14,38,48.30
2006,02,04,14,39,53.10
2006,02,04,14,40,46.70
2006,02,04,14,41,64.40
2006,02,04,14,42,53.10
2006,02,04,14,43,53.10
2006,02,04,14,44,56.30
2006,02,04,14,45,57.90
2006,02,04,14,46,43.50
2006,02,04,14,47,64.40
2006,02,04,14,48,53.10
2006,02,04,14,49,62.70
2006,02,04,14,50,66.00
2006,02,04,14,51,53.10
2006,02,04,14,52,62.70
2006,02,04,14,53,54.70
2006,02,04,14,54,64.40
2006,02,04,14,55,54.70
2006,02,04,14,56,46.70
2006,02,04,14,57,82.10
2006,02,04,14,58,51.50
2006,02,04,14,59,72.40
2006,02,04,15,00,49.90
2006,02,04,15,01,59.50
2006,02,04,15,02,45.10
2006,02,04,15,03,38.60
2006,02,04,15,04,49.90
2006,02,04,15,05,57.90
2006,02,04,15,06,61.20
2006,02,04,15,07,64.40
2006,02,04,15,08,51.50
2006,02,04,15,09,51.50
2006,02,04,15,10,57.90
2006,02,04,15,11,64.40
2006,02,04,15,12,61.20
2006,02,04,15,13,62.70
2006,02,04,15,14,56.30
2006,02,04,15,15,53.10
2006,02,04,15,16,61.20
2006,02,04,15,17,56.30
2006,02,04,15,18,46.70
2006,02,04,15,19,67.60
2006,02,04,15,20,40.20
2006,02,04,15,21,49.90
2006,02,04,15,22,48.30
2006,02,04,15,23,53.10
2006,02,04,15,24,62.70
2006,02,04,15,25,51.50
2006,02,04,15,26,45.10
2006,02,04,15,27,48.30
2006,02,04,15,28,56.30
2006,02,04,15,29,69.20
2006,02,04,15,30,69.20
2006,02,04,15,31,56.30
2006,02,04,15,32,59.50
2006,02,04,15,33,56.30
2006,02,04,15,34,67.60
2006,02,04,15,35,57.90
2006,02,04,15,36,49.90
2006,02,04,15,37,51.50
2006,02,04,15,38,37.00
2006,02,04,15,39,69.20
2006,02,04,15,40,69.20
2006,02,04,15,41,57.90
2006,02,04,15,42,64.40
2006,02,04,15,43,61.20
2006,02,04,15,44,61.20
2006,02,04,15,45,59.50
2006,02,04,15,46,53.10
2006,02,04,15,47,56.30
2006,02,04,15,48,46.70
2006,02,04,15,49,53.10
2006,02,04,15,50,70.80
2006,02,04,15,51,74.00
2006,02,04,15,52,67.60
2006,02,04,15,53,48.30
2006,02,04,15,54,56.30
2006,02,04,15,55,62.70
2006,02,04,15,56,56.30
2006,02,04,15,57,62.70
2006,02,04,15,58,64.40
2006,02,04,15,59,54.70
2006,02,04,16,00,53.10
2006,02,04,16,01,49.90
2006,02,04,16,02,59.50
2006,02,04,16,03,69.20
2006,02,04,16,04,43.50
2006,02,04,16,05,61.20
2006,02,04,16,06,64.40
2006,02,04,16,07,43.50
2006,02,04,16,08,45.10
2006,02,04,16,09,56.30
2006,02,04,16,10,54.70
2006,02,04,16,11,56.30
2006,02,04,16,12,51.50
2006,02,04,16,13,41.80
2006,02,04,16,14,53.10
2006,02,04,16,15,48.30
2006,02,04,16,16,49.90
2006,02,04,16,17,57.90
2006,02,04,16,18,54.70
2006,02,04,16,19,53.10
2006,02,04,16,20,62.70
2006,02,04,16,21,64.40
2006,02,04,16,22,53.10
2006,02,04,16,23,64.40
2006,02,04,16,24,59.50
2006,02,04,16,25,46.70
2006,02,04,16,26,54.70
2006,02,04,16,27,48.30
2006,02,04,16,28,48.30
2006,02,04,16,29,45.10
2006,02,04,16,30,35.40
2006,02,04,16,31,51.50
2006,02,04,16,32,48.30
2006,02,04,16,33,69.20
2006,02,04,16,34,59.50
2006,02,04,16,35,54.70
2006,02,04,16,36,54.70
2006,02,04,16,37,51.50
2006,02,04,16,38,67.60
2006,02,04,16,39,57.90
2006,02,04,16,40,53.10
2006,02,04,16,41,53.10
2006,02,04,16,42,43.50
2006,02,04,16,43,54.70
2006,02,04,16,44,53.10
2006,02,04,16,45,43.50
2006,02,04,16,46,54.70
2006,02,04,16,47,59.50
2006,02,04,16,48,49.90
2006,02,04,16,49,53.10
2006,02,04,16,50,51.50
2006,02,04,16,51,46.70
2006,02,04,16,52,54.70
2006,02,04,16,53,40.20
2006,02,04,16,54,51.50
2006,02,04,16,55,51.50
2006,02,04,16,56,53.10
2006,02,04,16,57,53.10
2006,02,04,16,58,38.60
2006,02,04,16,59,64.40
2006,02,04,17,00,46.70
2006,02,04,17,01,37.00
2006,02,04,17,02,49.90
2006,02,04,17,03,57.90
2006,02,04,17,04,49.90
2006,02,04,17,05,59.50
2006,02,04,17,06,45.10
2006,02,04,17,07,32.20
2006,02,04,17,08,30.60
2006,02,04,17,09,30.60
2006,02,04,17,10,61.20
2006,02,04,17,11,35.40
2006,02,04,17,12,49.90
2006,02,04,17,13,43.50
2006,02,04,17,14,38.60
2006,02,04,17,15,30.60
2006,02,04,17,16,38.60
2006,02,04,17,17,53.10
2006,02,04,17,18,45.10
2006,02,04,17,19,35.40
2006,02,04,17,20,38.60
2006,02,04,17,21,41.80
2006,02,04,17,22,25.70
2006,02,04,17,23,37.00
2006,02,04,17,24,35.40
2006,02,04,17,25,29.00
2006,02,04,17,26,22.50
2006,02,04,17,27,41.80
2006,02,04,17,28,41.80
2006,02,04,17,29,29.00
2006,02,04,17,30,32.20
2006,02,04,17,31,37.00
2006,02,04,17,32,53.10
2006,02,04,17,33,32.20
2006,02,04,17,34,27.40
2006,02,04,17,35,30.60
2006,02,04,17,36,30.60
2006,02,04,17,37,33.80
2006,02,04,17,38,49.90
2006,02,04,17,39,33.80
2006,02,04,17,40,40.20
2006,02,04,17,41,29.00
2006,02,04,17,42,24.20
2006,02,04,17,43,29.00
2006,02,04,17,44,35.40
2006,02,04,17,45,32.20
2006,02,04,17,46,20.90
2006,02,04,17,47,25.70
2006,02,04,17,48,22.50
2006,02,04,17,49,22.50
2006,02,04,17,50,25.70
2006,02,04,17,51,35.40
2006,02,04,17,52,33.80
2006,02,04,17,53,22.50
2006,02,04,17,54,16.10
2006,02,04,17,55,24.20
2006,02,04,17,56,19.30
2006,02,04,17,57,29.00
2006,02,04,17,58,25.70
2006,02,04,17,59,25.70
2006,02,04,18,00,20.90
2006,02,04,18,01,32.20
2006,02,04,18,02,29.00
2006,02,04,18,03,32.20
2006,02,04,18,04,40.20
2006,02,04,18,05,32.20
2006,02,04,18,06,24.20
2006,02,04,18,07,37.00
2006,02,04,18,08,24.20
2006,02,04,18,09,24.20
2006,02,04,18,10,33.80
2006,02,04,18,11,25.70
2006,02,04,18,12,51.50
2006,02,04,18,13,24.20
2006,02,04,18,14,32.20
2006,02,04,18,15,32.20
2006,02,04,18,16,40.20
2006,02,04,18,17,30.60
2006,02,04,18,18,25.70
2006,02,04,18,19,30.60
2006,02,04,18,20,33.80
2006,02,04,18,21,30.60
2006,02,04,18,22,33.80
2006,02,04,18,23,37.00
2006,02,04,18,24,27.40
2006,02,04,18,25,32.20
2006,02,04,18,26,25.70
2006,02,04,18,27,45.10
2006,02,04,18,28,29.00
2006,02,04,18,29,38.60
2006,02,04,18,30,30.60
2006,02,04,18,31,30.60
2006,02,04,18,32,30.60
2006,02,04,18,33,27.40
2006,02,04,18,34,30.60
2006,02,04,18,35,38.60
2006,02,04,18,36,30.60
2006,02,04,18,37,24.20
2006,02,04,18,38,25.70
2006,02,04,18,39,25.70
2006,02,04,18,40,17.70
2006,02,04,18,41,25.70
2006,02,04,18,42,19.30
2006,02,04,18,43,24.20
2006,02,04,18,44,25.70
2006,02,04,18,45,17.70
2006,02,04,18,46,19.30
2006,02,04,18,47,29.00
2006,02,04,18,48,24.20
2006,02,04,18,49,17.70
2006,02,04,18,50,22.50
2006,02,04,18,51,24.20
2006,02,04,18,52,20.90
2006,02,04,18,53,25.70
2006,02,04,18,54,27.40
2006,02,04,18,55,22.50
2006,02,04,18,56,22.50
2006,02,04,18,57,24.20
2006,02,04,18,58,16.10
2006,02,04,18,59,20.90
2006,02,04,19,00,19.30
2006,02,04,19,01,22.50
2006,02,04,19,02,20.90
2006,02,04,19,03,16.10
2006,02,04,19,04,19.30
2006,02,04,19,05,12.90
2006,02,04,19,06,11.30
2006,02,04,19,07,9.60
2006,02,04,19,08,9.60
2006,02,04,19,09,12.90
2006,02,04,19,10,14.50
2006,02,04,19,11,11.30
2006,02,04,19,12,8.10
2006,02,04,19,13,11.30
2006,02,04,19,14,16.10
2006,02,04,19,15,12.90
2006,02,04,19,16,11.30
2006,02,04,19,17,14.50
2006,02,04,19,18,17.70
2006,02,04,19,19,11.30
2006,02,04,19,20,16.10
2006,02,04,19,21,16.10
2006,02,04,19,22,30.60
2006,02,04,19,23,22.50
2006,02,04,19,24,22.50
2006,02,04,19,25,14.50
2006,02,04,19,26,22.50
2006,02,04,19,27,19.30
2006,02,04,19,28,24.20